Regional Weather Roundup
Issued by NWS

Home | Current Version | Previous Version | Graphics & Text | Print | Product List | Glossary On
Versions: 1 2 3 4 5 6 7 8 9 10 11 12 13 14 15 16 17 18 19 20 21 22 23 24 25 26 27 28 29 30 31 32 33 34 35 36 37 38 39 40 41 42 43 44 45 46 47 48 49 50
000
ASUS43 KOAX 100702
RWRNE

WEATHER ROUNDUP FOR NEBRASKA
NATIONAL WEATHER SERVICE OMAHA NE
200 AM CDT THU JUL 10 2014

NOTES: SATELLITE DATA IS BEING USED TO AUGMENT CLOUD COVER ABOVE
       12000 FEET.
       "FAIR" INDICATES FEW OR NO CLOUDS BELOW 12,000 FEET WITH NO
       SIGNIFICANT WEATHER AND/OR OBSTRUCTIONS TO VISIBILITY.

  * THESE STATIONS DO NOT REPORT WEATHER SUCH AS RAIN...SNOW OR FOG.

NEZ001>004-019>022-054>056-100800-
NEBRASKA PANHANDLE

CITY           SKY/WX    TMP DP  RH WIND       PRES   REMARKS
SCOTTSBLUFF    CLEAR     64  61  90 NE10      29.95R
ALLIANCE       CLEAR     61  60  97 E6        29.96S
CHADRON        CLEAR     63  59  87 SE3       29.95F
KIMBALL        CLEAR     60  52  77 W5        29.98F
SIDNEY         CLEAR     60  51  72 S8        29.98S
$$

NEZ057>060-069>072-079>082-100800-
SOUTHWEST NEBRASKA

CITY           SKY/WX    TMP DP  RH WIND       PRES   REMARKS
NORTH PLATTE   MOCLDY    64  60  87 SE23G38   29.96F
IMPERIAL       CLEAR     68  60  75 SE16      29.97R
LEXINGTON      CLOUDY    65  64  96 E33G46    29.95F
MCCOOK         CLOUDY    65  63  93 E17       29.99R
OGALLALA       CLEAR     65  60  83 E10       29.95S
$$

NEZ005>010-023>029-035>040-094-100800-
NORTH CENTRAL NEBRASKA

CITY           SKY/WX    TMP DP  RH WIND       PRES   REMARKS
VALENTINE      CLEAR     59  58  96 E5        29.96F
AINSWORTH      MOCLDY    64  61  91 S12       29.97F
BROKEN BOW     CLOUDY    65  62  90 CALM      29.95F
O`NEILL        MOCLDY    63  59  88 E8        29.99S
ORD            MOCLDY    63  60  90 SE8       29.95F
THEDFORD       CLOUDY    69  61  75 SE17G23   29.98S
$$

NEZ041-046>049-061>064-073>077-083>087-100800-
SOUTH CENTRAL NEBRASKA

CITY           SKY/WX    TMP DP  RH WIND       PRES   REMARKS
GRAND ISLAND   CLOUDY    66  62  87 S14G26    29.96F
AURORA         CLOUDY    67  64  89 SE12      29.96F
HASTINGS       CLOUDY    66  61  84 S12G22    29.97F
HEBRON         CLOUDY    68  64  85 SE12      29.99F
HOLDREGE       CLOUDY    65  62  87 E22       30.01S
KEARNEY *      CLOUDY    66  61  82 S25G43    29.93F THUNDER
YORK           CLOUDY    66  61  82 SE6       30.00S
$$

NEZ011>018-030>034-042>045-100800-
NORTHEAST NEBRASKA

CITY           SKY/WX    TMP DP  RH WIND       PRES   REMARKS
NORFOLK        CLEAR     63  60  90 SE7       29.99F
ALBION         PTCLDY    62  61  97 E5        29.99F
BLAIR          PTCLDY    66  60  81 S8        30.02F
FREMONT        PTCLDY    69  63  80 S8        30.02S
TEKAMAH        CLEAR     63  60  90 E3        30.01F
WAYNE          CLEAR     61  59  94 CALM      30.01F
$$

NEZ050>053-065>068-078-088>093-100800-
SOUTHEAST NEBRASKA

CITY           SKY/WX    TMP DP  RH WIND       PRES   REMARKS
LINCOLN        CLOUDY    68  62  81 E9        30.01F
OMAHA EPPLEY   MOCLDY    70  61  73 S9        30.02F
BEATRICE       LGT RAIN  66  62  85 SE13G18   29.97F
FALLS CITY     CLOUDY    69  63  81 SE3       30.03F
NEBRASKA CITY  CLOUDY    66  63  91 S5        30.04S
PLATTSMOUTH    CLOUDY    65  62  87 S7        30.04S
$$

NEZ044-045-051>053-067-100800-
OMAHA AREA

CITY           SKY/WX    TMP DP  RH WIND       PRES   REMARKS
OMAHA EPPLEY   MOCLDY    70  61  73 S9        30.02F
BLAIR          PTCLDY    66  60  81 S8        30.02F
FREMONT        PTCLDY    69  63  80 S8        30.02S
MILLARD        MOCLDY    69  61  77 CALM      30.02F
OFFUTT AFB     MOCLDY    68  67  96 S6        30.02F
PLATTSMOUTH    CLOUDY    65  62  87 S7        30.04S
WAHOO          FAIR      64  61  88 SE3       30.01F
$$



USA.gov is the U.S. government's official web portal to all federal, state and local government web resources and services.